FREGAT R/B, 42710

Orbit data source: Space-Track

FREGAT R/B, 42710 is space debris in HEO originally from a launch on Thu, 18 May 2017 UTC launched from the French Guiana (FRGUI). Debris objects in space refer to the collection of defunct objects orbiting the Earth. Examples of debris include non-operational satellites, rocket bodies, and fragments generated from explosions, collisions, or faulty payload assembly.

Loading next visibility...
Identifier
42710, 2017-026B
Orbit
HEO
Country
Flag of CISCIS
Related business
Manufacturer
Lavochkin
Mission
Spacecraft
Bus & Motor
FREGAT, Unknown motor
Mass
1,000 kg wet, 1,000 kg dry
Launch date (UTC)
2017-05-18 (9 years ago)
Launch vehicle
Unknown
Launch site
French Guiana (FRGUI)
Object type
Payload
Rocket body
Debris
Shape & HBR
Irr, 1.7 m
Radar Cross Section
12.110 m², Large (>1 m²)

Expand to show TLE details & history
Last TLE update: 2 days ago

TLE from 2 days ago
0 FREGAT R/B
1 42710U 17026B   26170.95818917 -.00000125  00000-0  00000+0 0  9992
2 42710   6.7945 350.4848 6244063 293.5857  14.3370  2.45433171 81527
Epoch: 2026-06-19T22:59Z
TLE epoch observation values (Epoch: 2026-06-19T22:59:47.544Z)
Latitude
-0.00013°
Longitude
97.32885°
Altitude
4,935.848 km
Speed
7.3 km/s
True Right ascension
23h 21m 49s
True Declination
0° 00' 00"
Sunlit
Object was in daylight at epoch
Visualization orbit readout
Latitude
Unknown
Longitude
Unknown
Altitude
Unknown
Speed
Unknown
Apparent Right ascension
Unknown
Apparent Declination
Unknown
Sunlit
N/A
Visualization observer readout
Local Sidereal Time
21:43:35
Azimuth
Unknown
Elevation
Unknown
Doppler factor
Unknown
Orbital elements
Apogee altitude
31,339.763 km
Perigee altitude
2,342.96 km
Semi-major axis
23,219.499 km
Eccentricity
0.62441
Inclination
6.7945°
RAAN
350.4848°
Arg. of periapsis
293.5857°
True anomaly
66.03715°
Mean anomaly
14.337°
Eccentric anomaly
34.7071°
Mean motion
0.61343 °/min
Orbital period
586.87 mins
BSTAR
0
Loading maneuver chart data...
Computing Atmospheric mass density...
Loading historical data...
Loading historical data...
Loading historical data...
Loading historical data...
Loading historical data...
Loading historical data...
Loading historical data...
Other satellites on launch #26 in the year 2017 (2017-05-18 UTC)

Documentation

Showing up to 5 results
|